Hourly Data Report for April 01, 2019

OTTAWA INTL A
ONTARIO
Current Station Operator: NAVCAN

45°19'00.000" N
75°40'00.000" W
114.90 m
6106001
71628
YOW

Download Data

Hourly Data (April 2019)
Hourly Data Report for April 1, 2019
TIME
LST
Temp Definition
°C
Dew Point Definition
°C
Rel Hum Definition
%
Precip. Amount Definition
mm

Wind Dir Definition
10's deg

Wind Spd Definition
km/h
Visibility Definition
km
Stn Press Definition
kPa
Hmdx Definition


Wind Chill Definition


Weather Definition


00:00 -3.2 -9.7 61   33 26 24.1 100.14   -10 LegendNANA
01:00 -4.1 -10.9 59   33 26 24.1 100.21   -11 Mainly Clear
02:00 -5.1 -11.2 62   32 22 24.1 100.27   -12 LegendNANA
03:00 -5.8 -11.5 64   30 20 24.1 100.32   -13 LegendNANA
04:00 -6.3 -12.1 64   30 18 24.1 100.39   -13 Clear
05:00 -6.9 -12.5 64   28 17 24.1 100.49   -13 LegendNANA
06:00 -7.6 -12.3 69   28 14 24.1 100.59   -14 LegendNANA
07:00 -7.0 -12.2 66   29 20 24.1 100.68   -14 Clear
08:00 -6.0 -12.3 61   26 20 24.1 100.74   -13 LegendNANA
09:00 -4.9 -11.3 61   25 20 24.1 100.81   -11 LegendNANA
10:00 -3.7 -12.0 53   24 22 24.1 100.86   -10 Clear
11:00 -2.4 -12.7 45   26 28 24.1 100.86   -9 LegendNANA
12:00 -1.9 -12.5 44   24 25 24.1 100.86   -8 LegendNANA
13:00 -0.4 -11.8 42   26 20 24.1 100.82   -6 Clear
14:00 0.7 -9.3 47   23 29 24.1 100.81     LegendNANA
15:00 1.3 -7.5 52   24 27 24.1 100.79     LegendNANA
16:00 1.7 -7.7 50   24 32 24.1 100.78     Mostly Cloudy
17:00 2.1 -8.0 47   24 23 24.1 100.77     LegendNANA
18:00 1.7 -8.7 46   24 25 24.1 100.80     LegendNANA
19:00 0.8 -8.2 51   23 21 24.1 100.84     Mainly Clear
20:00 0.1 -7.3 58   22 19 24.1 100.93     LegendNANA
21:00 -0.8 -6.8 64   22 16 24.1 100.99   -6 LegendNANA
22:00 -1.1 -7.8 60   22 20 24.1 101.00   -7 Clear
23:00 -1.7 -7.7 64   21 17 24.1 101.02   -7 LegendNANA

Notes on Data Quality.

Legend

  • E = Estimated
  • M = Missing
  • NA = Not Available*
  • [empty] = Indicates an unobserved value
Date modified: